Погода в Полевом Сундыре

Россия / Чувашская Республика     55°10′27″N   47°39′52″E
темп.,
°C
ветер,
м/с
пор.,
м/с
влажн.,
%
обл.,
%
осадки,
мм/ч
давл.,
гПа
погр.,
м
13 апреля, вт
вт1300:00+5вюв379997 0.0 1036135
03:00+6юв3799100 0.0 1035162
06:00+6юв3799100 0.0 1035168
09:00+9ююв469472 0.0 1035200
12:00+15ююв476476 0.0 1033534
15:00+17ююв57485 0.0 1032974
18:00+14ююв486546 0.0 1031157
21:00+11ююв35755 0.0 103161
14 апреля, ср
ср1400:00+9ю35835 0.0 103160
03:00+8ююв338170 0.0 103027
06:00+7ююв34805 0.0 103065
09:00+12ююв46591 0.0 1029303
12:00+16ююв574720 0.0 1027693
15:00+17ююв67535 0.0 1026884
18:00+14ююв47670 0.0 1024173
21:00+11ююв35785 0.0 102483
15 апреля, чт
чт1500:00+9ююв33845 0.0 102328
03:00+8ююв22860 0.0 102216
06:00+8ююв22880 0.0 102231
09:00+13ююв34700 0.0 1021322
12:00+16ю34545 0.0 10201082
15:00+18ю33455 0.0 10181533
18:00+16юв22532 0.0 101819
21:00+12ююв22682 0.0 101816
16 апреля, пт
пт1600:00+11зюз11715 0.0 101710
03:00+9сз11751 0.0 101710
06:00+10ссз1180100 0.0 101711
09:00+11ссв3478100 0.0 101791
12:00+11ссв4683100 0.0 1018386
15:00+14ссв576569 0.1 10181047
18:00+10ссв610735 0.0 1020636
21:00+6св6118298 0.0 1022573
17 апреля, сб
сб1700:00+4ссв411770 0.0 1023381
03:00+2ссв410715 0.0 1024273
06:00+2ссв410670 0.0 1025323
09:00+6с69485 0.0 10251334
12:00+8с911415 0.0 10251953
15:00+7с1012367 0.0 10272205
18:00+5с813425 0.0 10282056
21:00+2ссв813510 0.0 10301092